Vorticity
nan nan nan nan nan nan nan nan nan nan nan nan nan nan nan nan nan nan nan nan nan nan nan nan nan nan nan nan nan nan nan nan nan nan nan nan nan nan nan nan nan nan nan nan
nan 10 8 9 11 11 7 5 9 6 11 12 12 14 11 8 6 5 6 6 7 7 8 8 8 9 8 8 8 9 9 8 8 8 8 8 8 9 10 10 11 12 13 nan
nan 9 10 17 21 10 5 11 14 9 14 14 10 10 8 6 8 7 6 6 8 8 8 7 7 8 8 9 8 8 7 7 7 8 8 8 8 9 9 9 10 11 12 nan
nan 9 8 13 17 17 9 10 9 9 18 14 9 7 8 10 9 7 7 8 8 7 7 7 7 8 8 8 8 8 8 7 7 7 8 9 9 9 10 10 10 10 10 nan
nan 6 8 14 12 13 10 13 17 7 11 13 7 2 7 10 9 9 8 7 6 5 6 6 8 8 9 8 8 8 7 8 8 8 9 9 9 10 11 10 10 11 9 nan
nan 11 7 7 13 12 8 14 20 15 13 7 0 3 12 11 8 7 6 5 5 7 8 7 7 9 9 9 9 9 8 9 9 9 9 9 10 12 13 11 10 10 9 nan
nan 8 9 11 13 12 8 16 19 16 13 5 3 14 17 10 8 7 7 4 4 6 7 7 8 9 9 9 9 9 10 10 10 10 11 11 10 12 10 10 10 9 10 nan
nan 10 13 11 11 8 7 16 14 12 12 13 13 12 9 8 8 7 6 6 6 6 6 7 9 9 9 10 10 11 10 10 10 12 12 9 9 10 11 12 11 11 13 nan
nan 5 11 11 10 14 16 14 12 12 13 13 9 9 9 8 7 7 6 7 8 7 7 7 9 9 9 10 11 10 10 10 10 10 10 9 12 13 14 12 13 13 12 nan
nan 10 10 11 14 16 18 14 15 12 9 8 11 11 9 9 8 5 5 7 8 8 8 9 10 10 10 10 10 9 9 10 10 11 11 12 12 12 11 10 10 10 10 nan
nan 13 10 11 15 14 12 9 8 9 12 13 11 10 10 8 6 6 7 7 9 10 9 9 10 10 11 11 10 9 9 10 12 11 11 13 11 11 8 9 8 5 7 nan
nan 12 12 17 12 9 9 9 10 10 8 12 13 10 8 6 6 6 6 8 9 11 10 10 10 10 11 11 10 8 10 11 12 11 13 11 10 9 12 9 6 12 12 nan
nan 16 18 12 8 11 13 11 11 11 12 10 8 8 5 6 7 7 8 9 10 11 11 10 9 10 11 10 9 9 9 10 12 12 10 9 11 11 11 10 14 14 12 nan
nan 9 9 12 12 12 11 10 10 9 10 8 6 6 8 9 8 8 9 11 13 12 11 10 9 9 12 11 8 9 11 13 12 11 11 10 10 12 11 10 11 10 10 nan
nan 16 15 12 11 11 10 8 8 8 7 6 6 7 7 9 10 10 10 12 14 14 11 11 9 10 13 10 7 10 13 10 10 12 11 11 12 11 10 10 10 11 11 nan
nan 12 11 10 9 8 9 9 8 6 6 7 7 9 10 10 10 10 11 11 13 12 11 13 9 10 13 10 8 11 10 10 12 11 11 12 12 11 11 11 11 11 9 nan
nan 8 9 7 8 7 7 8 8 8 8 7 9 10 11 11 10 10 11 11 12 12 12 13 12 11 12 10 11 13 10 9 12 12 11 12 11 10 12 12 10 9 9 nan
nan 13 12 11 9 8 7 8 8 8 9 10 12 12 12 9 9 12 10 11 12 11 13 15 16 12 9 11 14 12 10 9 10 12 12 11 11 11 10 11 12 10 9 nan
nan 11 10 10 9 9 8 8 8 9 10 11 10 10 12 10 9 10 13 13 10 10 11 14 17 13 9 12 14 11 9 10 12 12 10 11 12 12 11 10 10 11 12 nan
nan 8 9 8 9 10 10 9 8 9 9 11 12 9 9 11 12 11 12 13 13 12 12 13 12 12 11 12 13 12 10 12 12 12 11 12 11 11 11 10 11 12 12 nan
nan 7 7 8 9 9 10 9 8 8 11 12 9 10 12 11 13 11 9 10 12 15 16 13 13 13 10 10 12 12 12 12 12 12 12 11 12 11 10 12 13 12 12 nan
nan 8 8 7 8 9 8 9 12 12 10 9 10 11 9 10 13 16 14 11 12 13 14 12 8 9 10 12 14 12 11 12 13 12 12 12 11 12 12 11 12 12 12 nan
nan 10 11 10 7 8 11 12 11 10 9 9 10 11 11 14 12 13 10 16 16 11 12 9 8 9 13 15 12 12 12 13 12 12 12 11 12 12 12 11 11 13 13 nan
nan 9 10 11 12 9 8 11 11 13 13 9 13 12 8 11 13 12 13 13 10 11 11 9 8 10 15 15 11 12 12 12 12 12 10 13 14 11 11 13 12 11 11 nan
nan 10 11 10 9 10 11 12 11 10 9 12 13 12 14 14 13 14 14 9 8 10 10 10 12 15 14 11 11 11 12 12 12 12 12 13 12 13 11 12 13 12 13 nan
nan 9 9 11 11 11 11 11 11 11 11 12 12 12 13 14 16 14 10 9 10 11 12 12 13 13 11 11 11 12 12 12 12 12 12 13 13 13 12 12 13 13 13 nan
nan nan nan nan nan nan nan nan nan nan nan nan nan nan nan nan nan nan nan nan nan nan nan nan nan nan nan nan nan nan nan nan nan nan nan nan nan nan nan nan nan nan nan nan
CAPE
0 0 0 0 0 0 0 0 0 0 0 0 0 0 0 0 0 0 0 0 0 0 0 0 0 0 0 0 0 0 0 0 0 0 0 0 0 0 0 0 0 0 0 0
0 0 0 0 0 0 0 0 0 0 0 0 0 0 0 0 0 0 0 0 0 0 0 0 0 0 0 0 0 0 0 0 0 0 0 0 0 0 0 0 0 0 0 0
0 0 0 0 0 0 0 0 0 0 0 0 0 0 0 0 0 0 0 0 0 0 0 0 0 0 0 0 0 0 0 0 0 0 0 0 0 0 0 0 0 0 0 0
0 0 0 0 0 0 0 0 0 0 0 0 0 0 0 0 0 0 0 0 0 0 0 0 0 0 0 0 0 0 0 0 0 0 0 0 0 0 0 0 0 3 3 1
0 0 0 0 0 0 0 0 0 0 0 0 0 0 0 0 0 0 0 0 0 0 0 0 0 0 0 0 0 0 0 0 0 0 0 0 0 0 1 5 10 14 18 16
0 0 0 0 0 0 0 0 0 0 0 0 0 0 0 0 0 0 0 0 0 0 0 0 0 0 0 0 0 0 0 0 0 0 0 1 2 6 8 6 1 6 4 14
0 0 0 0 0 0 0 0 0 0 0 0 0 0 0 0 0 0 0 0 0 0 0 0 0 0 0 0 0 0 0 0 0 0 4 6 11 11 15 8 5 23 20 18
0 0 0 0 0 0 0 0 0 0 0 0 0 0 0 0 0 0 0 0 0 0 0 0 0 0 0 0 0 0 0 0 0 1 0 1 9 13 18 24 34 44 55 29
0 0 0 0 0 0 0 0 0 0 0 0 0 0 0 0 0 0 0 0 0 0 0 0 0 0 0 0 0 0 1 1 2 3 4 10 15 14 52 38 58 53 93 116
0 0 0 0 0 0 0 0 0 0 0 0 0 0 0 0 0 0 0 0 0 0 0 0 0 0 0 0 0 0 1 0 0 0 0 3 12 24 62 43 81 112 131 131
0 0 0 0 0 0 0 0 0 0 0 0 0 0 0 0 0 0 0 0 0 0 0 0 0 0 0 0 1 3 3 1 2 3 7 24 28 19 9 7 56 75 111 105
0 0 0 0 0 0 0 0 0 0 0 0 0 0 0 0 0 0 0 0 0 0 0 0 0 0 0 0 4 10 8 3 3 7 25 27 15 12 0 5 3 6 15 22
0 0 0 0 0 0 0 0 0 0 0 0 0 0 0 0 0 0 0 0 0 0 0 0 0 0 0 2 9 11 7 3 7 8 22 12 9 10 22 4 2 10 3 3
0 0 0 0 0 0 0 0 0 0 0 0 0 0 0 0 0 0 0 0 0 0 0 0 0 0 0 6 11 8 5 4 8 11 11 11 4 11 18 32 37 21 8 17
0 0 0 0 0 0 0 0 0 0 0 0 0 0 0 0 0 0 0 0 0 0 0 0 0 0 0 7 9 6 9 7 6 9 7 6 9 12 13 15 16 27 32 16
0 0 0 0 0 0 0 0 0 0 0 0 0 0 0 0 0 0 0 0 0 2 0 0 0 0 0 9 16 14 12 8 7 7 4 2 6 11 11 13 22 25 18 11
0 0 0 0 0 0 0 0 0 0 0 0 0 0 0 0 0 0 0 0 0 0 0 0 0 0 1 15 18 12 17 12 6 4 0 0 5 10 14 25 26 18 12 9
0 0 0 0 0 0 0 0 0 0 0 0 0 0 0 0 0 0 0 0 0 0 0 0 1 5 12 16 8 13 14 13 8 3 0 5 13 14 11 10 15 20 10 6
0 0 0 0 0 0 0 0 0 0 0 0 0 0 0 0 0 0 0 0 0 0 2 5 2 7 16 6 11 11 11 10 6 3 2 3 3 3 7 9 12 7 8 8
0 0 0 0 0 0 0 0 0 0 0 0 0 0 0 0 0 0 0 1 1 7 9 19 14 13 9 7 6 6 4 2 0 0 1 2 2 6 8 5 4 6 11 14
0 0 0 0 0 0 0 0 0 0 0 0 0 0 0 0 0 0 1 4 1 6 14 6 6 8 4 0 0 0 0 0 0 0 1 3 6 8 7 7 8 14 18 16
0 0 0 0 0 0 0 0 0 0 0 0 0 0 0 0 1 3 1 4 7 7 3 3 3 0 0 0 0 0 0 0 0 1 3 6 8 15 14 13 23 26 18 31
0 0 0 0 0 0 0 0 0 0 0 0 0 0 0 2 7 5 8 6 11 0 0 0 0 0 0 0 0 0 0 0 2 3 5 12 15 20 15 14 17 17 20 18
0 0 0 0 0 0 0 0 0 0 0 0 0 0 0 7 8 5 13 0 0 0 0 0 0 0 0 0 0 0 1 2 4 6 5 4 19 16 13 24 22 13 23 25
0 0 0 0 0 0 0 0 0 0 0 0 0 0 0 5 12 8 4 0 0 0 0 0 0 0 0 0 0 1 3 2 4 16 7 11 13 23 20 16 19 16 25 18
0 0 0 0 0 0 1 0 0 0 0 0 0 4 7 8 11 2 1 0 0 0 0 0 0 0 0 0 0 0 1 2 5 6 9 9 9 13 10 10 13 14 18 19
0 0 0 0 0 0 0 0 0 0 0 3 4 6 6 13 2 1 0 0 0 0 0 0 0 0 0 0 0 0 2 4 5 4 4 6 7 9 10 10 12 14 13 9